Tracking 19224 objects as of 22-Jul-2018
HD Live streaming from Space Station
objects crossing your sky now

WESTFORD NEEDLES

Track WESTFORD NEEDLES now!
10-day predictions
WESTFORD NEEDLES is classified as:


NORAD ID: 2377
Int'l Code: 1963-014X
Perigee: 2,918.3 km
Apogee: 4,335.4 km
Inclination: 87.4 °
Period: 165.8 minutes
Semi major axis: 9997 km
RCS: 0.1884 m2 (medium)
Launch date: May 9, 1963
Source: United States (US)
Launch site: AIR FORCE WESTERN TEST RANGE (AFWTR)
aabbcc
Your satellite tracking list
Your tracking list is empty




NASA's NSSDC Master Catalog

Two Line Element Set (TLE):
1 02377U 63014X   18202.10360681  .00000804  00000-0  28133+0 0  9999
2 02377  87.3543  88.8459 0708719 106.2704 261.7256  8.68448482675071
Source of the keplerian elements: AFSPC